Pilot No. 4 — WDA5463 — position and weather

sailwx.info

Track history (hours):
 
Tides and Currents Weather Stations Pressure Air Temp Water Temp Dewpoint Dewpoint Depression Visibility Wind Speed Wind Dir Waves Ship Positions

Pilot No. 4

Owner: P E P Inc, FORT LAUDERDALE, FL. More information available from US FCC via Universal Licensing System and Coast Guard Vessel Documentation Center.

Last reported at 2014-Nov-21 18:34 UTC. Time now 2014-Nov-21 19:05 UTC.
Position N 26°06' W 080°07'.

MMSI: 495270931.

Date/timePositionNaut miles runAvg speedWind from/ knotsBaromVisibWave heightAir tempDewpointWater temp
2014-Nov-21 18:34N 26°06' W 080°07'0 0.5
2014-Nov-21 17:34N 26°06' W 080°07'1 1.1
2014-Nov-21 16:33N 26°05' W 080°07'1 0.8
2014-Nov-21 15:33N 26°06' W 080°07'0 0.4
2014-Nov-21 14:34N 26°06' W 080°07'1 1.3
2014-Nov-21 13:33N 26°06' W 080°06'1 1.2
2014-Nov-21 12:33N 26°06' W 080°05'1 0.3
2014-Nov-21 10:33N 26°05' W 080°04'3 2.5
2014-Nov-21 09:33N 26°05' W 080°07'1 0.5
2014-Nov-21 08:05N 26°06' W 080°07'1 1.7
2014-Nov-21 07:33N 26°06' W 080°06'1 0.7
2014-Nov-21 06:18N 26°06' W 080°07'1 1.7
2014-Nov-21 05:33N 26°06' W 080°06'2 2.0
2014-Nov-21 04:33N 26°05' W 080°04'3 3.4
2014-Nov-21 03:32N 26°06' W 080°07'3 3.5
2014-Nov-21 02:33N 26°04' W 080°04'3 3.2
2014-Nov-21 01:33N 26°06' W 080°07'2 1.9
2014-Nov-21 00:33N 26°05' W 080°05'2 1.8
2014-Nov-20 23:33N 26°05' W 080°07'1 0.7
2014-Nov-20 22:34N 26°06' W 080°07'1 0.8
2014-Nov-20 21:33N 26°06' W 080°07'0 0.2
2014-Nov-20 20:33N 26°05' W 080°07'0 0.3
2014-Nov-20 19:33N 26°06' W 080°07'1 0.2
2014-Nov-20 15:33N 26°06' W 080°07'1 0.7
2014-Nov-20 14:33N 26°06' W 080°07'2 1.7
2014-Nov-20 13:33N 26°06' W 080°05'2 1.7
2014-Nov-20 12:33N 26°06' W 080°07'0 0.2
2014-Nov-20 11:33N 26°06' W 080°07'3 2.9
2014-Nov-20 10:33N 26°05' W 080°04'1 1.0
2014-Nov-20 09:34N 26°05' W 080°05'1 1.4
2014-Nov-20 08:34N 26°06' W 080°06'0 0.1
2014-Nov-20 05:33N 26°06' W 080°06'2 1.5
2014-Nov-20 04:28N 26°06' W 080°07'1 0.8
2014-Nov-20 03:33N 26°06' W 080°07'1 0.7
2014-Nov-20 02:33N 26°06' W 080°07'0 0.0
2014-Nov-20 01:33N 26°06' W 080°07'1 0.6
2014-Nov-20 00:33N 26°06' W 080°07'1 0.4
2014-Nov-19 23:04N 26°06' W 080°07'1 2.6
2014-Nov-19 22:33N 26°06' W 080°06'0 0.4
2014-Nov-19 21:33N 26°06' W 080°07'0 0.2
2014-Nov-19 20:33N 26°06' W 080°07'1 0.1
2014-Nov-19 12:03N 26°06' W 080°07'2 4.3
2014-Nov-19 11:33N 26°06' W 080°05'2 2.1
2014-Nov-19 10:33N 26°06' W 080°07'0 0.0
2014-Nov-19 09:33N 26°06' W 080°07'0 0.0
2014-Nov-19 08:33N 26°06' W 080°07'1 0.5
2014-Nov-19 07:33N 26°06' W 080°07'1 0.7
2014-Nov-19 06:33N 26°06' W 080°06'4 3.7
2014-Nov-19 05:33N 26°06' W 080°02'3 1.1
2014-Nov-19 02:33N 26°06' W 080°06'1 1.3
2014-Nov-19 01:33N 26°06' W 080°07'0 0.1
2014-Nov-18 21:08N 26°06' W 080°07'2 1.4
2014-Nov-18 19:33N 26°06' W 080°05'1 0.3
2014-Nov-18 17:33N 26°06' W 080°06'1 1.1
2014-Nov-18 16:33N 26°05' W 080°07'0 0.4
2014-Nov-18 15:33N 26°06' W 080°07'0 0.3
2014-Nov-18 14:33N 26°05' W 080°07'0 0.2
2014-Nov-18 13:33N 26°05' W 080°07'1 0.8
2014-Nov-18 12:33N 26°06' W 080°07'1 1.1
2014-Nov-18 11:33N 26°05' W 080°07'1 1.1
2014-Nov-18 10:33N 26°06' W 080°07'0 0.0
2014-Nov-18 09:33N 26°06' W 080°07'1 1.3
2014-Nov-18 08:33N 26°06' W 080°06'1 1.3
2014-Nov-18 07:33N 26°06' W 080°07'2 1.8
2014-Nov-18 06:33N 26°06' W 080°05'0 0.0
2014-Nov-18 04:33N 26°06' W 080°05'2 0.2
2014-Nov-17 18:11N 26°06' W 080°07'2 3.0
2014-Nov-17 17:33N 26°06' W 080°05'1 1.3
2014-Nov-17 16:33N 26°05' W 080°07'3 2.7
2014-Nov-17 15:33N 26°06' W 080°04'1 0.6
2014-Nov-17 14:33N 26°06' W 080°05'2 2.3
2014-Nov-17 13:34N 26°05' W 080°07'0 0.4
2014-Nov-17 12:33N 26°06' W 080°07'0 0.1
2014-Nov-17 11:33N 26°06' W 080°07'0 0.4
2014-Nov-17 10:34N 26°05' W 080°07'1 0.7
2014-Nov-17 09:34N 26°06' W 080°06'3 2.9
2014-Nov-17 08:33N 26°07' W 080°04'4 3.5
2014-Nov-17 07:33N 26°06' W 080°07'0 0.0
2014-Nov-17 06:33N 26°06' W 080°07'1 0.5
2014-Nov-17 05:33N 26°06' W 080°07'1 0.5
2014-Nov-17 04:33N 26°06' W 080°07'0 0.1
2014-Nov-17 02:32N 26°06' W 080°07'2 1.1
2014-Nov-17 00:34N 26°05' W 080°05'1 1.4
2014-Nov-16 23:34N 26°06' W 080°06'1 0.8
2014-Nov-16 22:33N 26°06' W 080°06'1 1.4
2014-Nov-16 21:33N 26°05' W 080°07'1 0.1
2014-Nov-16 15:32N 26°06' W 080°07'0 0.0
2014-Nov-16 12:07N 26°06' W 080°07'4 6.7
2014-Nov-16 11:34N 26°05' W 080°03'1 0.7
2014-Nov-16 10:33N 26°05' W 080°04'3 3.2
2014-Nov-16 09:34N 26°05' W 080°07'0 0.2
2014-Nov-16 08:33N 26°06' W 080°07'0 0.1
2014-Nov-16 07:33N 26°06' W 080°07'1 0.8
2014-Nov-16 06:33N 26°06' W 080°06'0 0.1
2014-Nov-16 05:33N 26°06' W 080°06'1 0.4
2014-Nov-16 02:26N 26°06' W 080°07'2 0.8
2014-Nov-16 00:33N 26°06' W 080°06'3 2.7
2014-Nov-15 23:33N 26°06' W 080°03'4 3.9
2014-Nov-15 22:33N 26°05' W 080°07'1 1.1
2014-Nov-15 21:33N 26°06' W 080°06'1 1.1
2014-Nov-15 20:07N 26°06' W 080°07'1 2.2
2014-Nov-15 19:33N 26°06' W 080°06'1 0.7
2014-Nov-15 18:33N 26°06' W 080°07'1 0.6
2014-Nov-15 17:33N 26°06' W 080°07'0 0.0
2014-Nov-15 15:23N 26°06' W 080°07'1 0.9
2014-Nov-15 14:33N 26°06' W 080°07'2 2.4
2014-Nov-15 13:33N 26°06' W 080°04'2 2.2
2014-Nov-15 12:33N 26°06' W 080°07'1 0.8
2014-Nov-15 11:33N 26°06' W 080°07'0 0.4
2014-Nov-15 10:33N 26°06' W 080°07'2 1.9
2014-Nov-15 09:33N 26°06' W 080°05'2 2.2
2014-Nov-15 08:33N 26°06' W 080°07'0 0.0
2014-Nov-15 07:33N 26°06' W 080°07'3 3.1
2014-Nov-15 06:33N 26°06' W 080°04'3 3.0
2014-Nov-15 05:33N 26°06' W 080°07'0 0.4
2014-Nov-15 04:33N 26°06' W 080°07'0 0.5
2014-Nov-15 03:30N 26°06' W 080°07'0 0.0
2014-Nov-15 02:33N 26°06' W 080°07'0 0.2
2014-Nov-15 01:33N 26°06' W 080°07'0 0.2
2014-Nov-15 00:33N 26°06' W 080°07'1 0.8
2014-Nov-14 23:33N 26°06' W 080°06'1 0.9
2014-Nov-14 22:33N 26°06' W 080°07'2 2.2
2014-Nov-14 21:33N 26°05' W 080°05'2 2.2
2014-Nov-14 20:24N 26°06' W 080°07'2 2.3
2014-Nov-14 19:33N 26°06' W 080°05'2 1.7
2014-Nov-14 18:33N 26°05' W 080°07'1 0.4
2014-Nov-14 16:33N 26°06' W 080°07'2 0.8
2014-Nov-14 14:33N 26°04' W 080°07'2 0.9
2014-Nov-14 12:27N 26°06' W 080°07'1 0.7
2014-Nov-14 11:33N 26°06' W 080°07'1 0.6
2014-Nov-14 10:33N 26°06' W 080°07'0 0.1
2014-Nov-14 09:33N 26°06' W 080°07'1 1.1
2014-Nov-14 08:33N 26°06' W 080°06'1 0.7
2014-Nov-14 07:33N 26°06' W 080°05'2 0.4
2014-Nov-14 02:31N 26°06' W 080°07'1 0.4
2014-Nov-14 00:09N 26°06' W 080°06'1 1.9
2014-Nov-13 23:33N 26°06' W 080°05'2 1.6
2014-Nov-13 22:33N 26°05' W 080°07'1 0.9
2014-Nov-13 21:33N 26°06' W 080°06'1 0.9
2014-Nov-13 20:33N 26°06' W 080°07'0 0.1
2014-Nov-13 18:33N 26°06' W 080°07'0 0.2
2014-Nov-13 17:33N 26°06' W 080°07'0 0.2
2014-Nov-13 16:33N 26°06' W 080°07'1 0.2
2014-Nov-13 13:33N 26°06' W 080°07'1 0.8
2014-Nov-13 12:33N 26°05' W 080°07'0 0.0
2014-Nov-13 11:33N 26°05' W 080°07'0 0.3
2014-Nov-13 10:34N 26°05' W 080°07'0 0.0
2014-Nov-13 09:33N 26°05' W 080°07'1 1.0
2014-Nov-13 08:33N 26°06' W 080°07'0 0.2
2014-Nov-13 07:33N 26°06' W 080°07'1 1.3
2014-Nov-13 06:33N 26°06' W 080°06'2 1.3
2014-Nov-13 05:21N 26°06' W 080°07'1 0.2
2014-Nov-13 01:13N 26°05' W 080°07'0 0.5
2014-Nov-13 00:34N 26°06' W 080°07'0 0.1
2014-Nov-12 22:33N 26°05' W 080°07'0 0.2
2014-Nov-12 21:33N 26°05' W 080°07'1 1.4
2014-Nov-12 20:33N 26°06' W 080°06'0 0.2
2014-Nov-12 19:33N 26°05' W 080°05'2 2.0
2014-Nov-12 18:33N 26°06' W 080°07'1 1.0
2014-Nov-12 17:34N 26°05' W 080°07'  
Track history (hours):
 
Tides and Currents Weather Stations Pressure Air Temp Water Temp Dewpoint Dewpoint Depression Visibility Wind Speed Wind Dir Waves Ship Positions

Pilot No. 4

Owner: P E P Inc, FORT LAUDERDALE, FL. More information available from US FCC via Universal Licensing System and Coast Guard Vessel Documentation Center.

Last reported at 2014-Nov-21 18:34 UTC. Time now 2014-Nov-21 19:05 UTC.
Position N 26°06' W 080°07'.

MMSI: 495270931.

Date/timePositionNaut miles runAvg speedWind from/ knotsBaromVisibWave heightAir tempDewpointWater temp
2014-Nov-21 18:34N 26°06' W 080°07'0 0.5
2014-Nov-21 17:34N 26°06' W 080°07'1 1.1
2014-Nov-21 16:33N 26°05' W 080°07'1 0.8
2014-Nov-21 15:33N 26°06' W 080°07'0 0.4
2014-Nov-21 14:34N 26°06' W 080°07'1 1.3
2014-Nov-21 13:33N 26°06' W 080°06'1 1.2
2014-Nov-21 12:33N 26°06' W 080°05'1 0.3
2014-Nov-21 10:33N 26°05' W 080°04'3 2.5
2014-Nov-21 09:33N 26°05' W 080°07'1 0.5
2014-Nov-21 08:05N 26°06' W 080°07'1 1.7
2014-Nov-21 07:33N 26°06' W 080°06'1 0.7
2014-Nov-21 06:18N 26°06' W 080°07'1 1.7
2014-Nov-21 05:33N 26°06' W 080°06'2 2.0
2014-Nov-21 04:33N 26°05' W 080°04'3 3.4
2014-Nov-21 03:32N 26°06' W 080°07'3 3.5
2014-Nov-21 02:33N 26°04' W 080°04'3 3.2
2014-Nov-21 01:33N 26°06' W 080°07'2 1.9
2014-Nov-21 00:33N 26°05' W 080°05'2 1.8
2014-Nov-20 23:33N 26°05' W 080°07'1 0.7
2014-Nov-20 22:34N 26°06' W 080°07'1 0.8
2014-Nov-20 21:33N 26°06' W 080°07'0 0.2
2014-Nov-20 20:33N 26°05' W 080°07'0 0.3
2014-Nov-20 19:33N 26°06' W 080°07'1 0.2
2014-Nov-20 15:33N 26°06' W 080°07'1 0.7
2014-Nov-20 14:33N 26°06' W 080°07'2 1.7
2014-Nov-20 13:33N 26°06' W 080°05'2 1.7
2014-Nov-20 12:33N 26°06' W 080°07'0 0.2
2014-Nov-20 11:33N 26°06' W 080°07'3 2.9
2014-Nov-20 10:33N 26°05' W 080°04'1 1.0
2014-Nov-20 09:34N 26°05' W 080°05'1 1.4
2014-Nov-20 08:34N 26°06' W 080°06'0 0.1
2014-Nov-20 05:33N 26°06' W 080°06'2 1.5
2014-Nov-20 04:28N 26°06' W 080°07'1 0.8
2014-Nov-20 03:33N 26°06' W 080°07'1 0.7
2014-Nov-20 02:33N 26°06' W 080°07'0 0.0
2014-Nov-20 01:33N 26°06' W 080°07'1 0.6
2014-Nov-20 00:33N 26°06' W 080°07'1 0.4
2014-Nov-19 23:04N 26°06' W 080°07'1 2.6
2014-Nov-19 22:33N 26°06' W 080°06'0 0.4
2014-Nov-19 21:33N 26°06' W 080°07'0 0.2
2014-Nov-19 20:33N 26°06' W 080°07'1 0.1
2014-Nov-19 12:03N 26°06' W 080°07'2 4.3
2014-Nov-19 11:33N 26°06' W 080°05'2 2.1
2014-Nov-19 10:33N 26°06' W 080°07'0 0.0
2014-Nov-19 09:33N 26°06' W 080°07'0 0.0
2014-Nov-19 08:33N 26°06' W 080°07'1 0.5
2014-Nov-19 07:33N 26°06' W 080°07'1 0.7
2014-Nov-19 06:33N 26°06' W 080°06'4 3.7
2014-Nov-19 05:33N 26°06' W 080°02'3 1.1
2014-Nov-19 02:33N 26°06' W 080°06'1 1.3
2014-Nov-19 01:33N 26°06' W 080°07'0 0.1
2014-Nov-18 21:08N 26°06' W 080°07'2 1.4
2014-Nov-18 19:33N 26°06' W 080°05'1 0.3
2014-Nov-18 17:33N 26°06' W 080°06'1 1.1
2014-Nov-18 16:33N 26°05' W 080°07'0 0.4
2014-Nov-18 15:33N 26°06' W 080°07'0 0.3
2014-Nov-18 14:33N 26°05' W 080°07'0 0.2
2014-Nov-18 13:33N 26°05' W 080°07'1 0.8
2014-Nov-18 12:33N 26°06' W 080°07'1 1.1
2014-Nov-18 11:33N 26°05' W 080°07'1 1.1
2014-Nov-18 10:33N 26°06' W 080°07'0 0.0
2014-Nov-18 09:33N 26°06' W 080°07'1 1.3
2014-Nov-18 08:33N 26°06' W 080°06'1 1.3
2014-Nov-18 07:33N 26°06' W 080°07'2 1.8
2014-Nov-18 06:33N 26°06' W 080°05'0 0.0
2014-Nov-18 04:33N 26°06' W 080°05'2 0.2
2014-Nov-17 18:11N 26°06' W 080°07'2 3.0
2014-Nov-17 17:33N 26°06' W 080°05'1 1.3
2014-Nov-17 16:33N 26°05' W 080°07'3 2.7
2014-Nov-17 15:33N 26°06' W 080°04'1 0.6
2014-Nov-17 14:33N 26°06' W 080°05'2 2.3
2014-Nov-17 13:34N 26°05' W 080°07'0 0.4
2014-Nov-17 12:33N 26°06' W 080°07'0 0.1
2014-Nov-17 11:33N 26°06' W 080°07'0 0.4
2014-Nov-17 10:34N 26°05' W 080°07'1 0.7
2014-Nov-17 09:34N 26°06' W 080°06'3 2.9
2014-Nov-17 08:33N 26°07' W 080°04'4 3.5
2014-Nov-17 07:33N 26°06' W 080°07'0 0.0
2014-Nov-17 06:33N 26°06' W 080°07'1 0.5
2014-Nov-17 05:33N 26°06' W 080°07'1 0.5
2014-Nov-17 04:33N 26°06' W 080°07'0 0.1
2014-Nov-17 02:32N 26°06' W 080°07'2 1.1
2014-Nov-17 00:34N 26°05' W 080°05'1 1.4
2014-Nov-16 23:34N 26°06' W 080°06'1 0.8
2014-Nov-16 22:33N 26°06' W 080°06'1 1.4
2014-Nov-16 21:33N 26°05' W 080°07'1 0.1
2014-Nov-16 15:32N 26°06' W 080°07'0 0.0
2014-Nov-16 12:07N 26°06' W 080°07'4 6.7
2014-Nov-16 11:34N 26°05' W 080°03'1 0.7
2014-Nov-16 10:33N 26°05' W 080°04'3 3.2
2014-Nov-16 09:34N 26°05' W 080°07'0 0.2
2014-Nov-16 08:33N 26°06' W 080°07'0 0.1
2014-Nov-16 07:33N 26°06' W 080°07'1 0.8
2014-Nov-16 06:33N 26°06' W 080°06'0 0.1
2014-Nov-16 05:33N 26°06' W 080°06'1 0.4
2014-Nov-16 02:26N 26°06' W 080°07'2 0.8
2014-Nov-16 00:33N 26°06' W 080°06'3 2.7
2014-Nov-15 23:33N 26°06' W 080°03'4 3.9
2014-Nov-15 22:33N 26°05' W 080°07'1 1.1
2014-Nov-15 21:33N 26°06' W 080°06'1 1.1
2014-Nov-15 20:07N 26°06' W 080°07'1 2.2
2014-Nov-15 19:33N 26°06' W 080°06'1 0.7
2014-Nov-15 18:33N 26°06' W 080°07'1 0.6
2014-Nov-15 17:33N 26°06' W 080°07'0 0.0
2014-Nov-15 15:23N 26°06' W 080°07'1 0.9
2014-Nov-15 14:33N 26°06' W 080°07'2 2.4
2014-Nov-15 13:33N 26°06' W 080°04'2 2.2
2014-Nov-15 12:33N 26°06' W 080°07'1 0.8
2014-Nov-15 11:33N 26°06' W 080°07'0 0.4
2014-Nov-15 10:33N 26°06' W 080°07'2 1.9
2014-Nov-15 09:33N 26°06' W 080°05'2 2.2
2014-Nov-15 08:33N 26°06' W 080°07'0 0.0
2014-Nov-15 07:33N 26°06' W 080°07'3 3.1
2014-Nov-15 06:33N 26°06' W 080°04'3 3.0
2014-Nov-15 05:33N 26°06' W 080°07'0 0.4
2014-Nov-15 04:33N 26°06' W 080°07'0 0.5
2014-Nov-15 03:30N 26°06' W 080°07'0 0.0
2014-Nov-15 02:33N 26°06' W 080°07'0 0.2
2014-Nov-15 01:33N 26°06' W 080°07'0 0.2
2014-Nov-15 00:33N 26°06' W 080°07'1 0.8
2014-Nov-14 23:33N 26°06' W 080°06'1 0.9
2014-Nov-14 22:33N 26°06' W 080°07'2 2.2
2014-Nov-14 21:33N 26°05' W 080°05'2 2.2
2014-Nov-14 20:24N 26°06' W 080°07'2 2.3
2014-Nov-14 19:33N 26°06' W 080°05'2 1.7
2014-Nov-14 18:33N 26°05' W 080°07'1 0.4
2014-Nov-14 16:33N 26°06' W 080°07'2 0.8
2014-Nov-14 14:33N 26°04' W 080°07'2 0.9
2014-Nov-14 12:27N 26°06' W 080°07'1 0.7
2014-Nov-14 11:33N 26°06' W 080°07'1 0.6
2014-Nov-14 10:33N 26°06' W 080°07'0 0.1
2014-Nov-14 09:33N 26°06' W 080°07'1 1.1
2014-Nov-14 08:33N 26°06' W 080°06'1 0.7
2014-Nov-14 07:33N 26°06' W 080°05'2 0.4
2014-Nov-14 02:31N 26°06' W 080°07'1 0.4
2014-Nov-14 00:09N 26°06' W 080°06'1 1.9
2014-Nov-13 23:33N 26°06' W 080°05'2 1.6
2014-Nov-13 22:33N 26°05' W 080°07'1 0.9
2014-Nov-13 21:33N 26°06' W 080°06'1 0.9
2014-Nov-13 20:33N 26°06' W 080°07'0 0.1
2014-Nov-13 18:33N 26°06' W 080°07'0 0.2
2014-Nov-13 17:33N 26°06' W 080°07'0 0.2
2014-Nov-13 16:33N 26°06' W 080°07'1 0.2
2014-Nov-13 13:33N 26°06' W 080°07'1 0.8
2014-Nov-13 12:33N 26°05' W 080°07'0 0.0
2014-Nov-13 11:33N 26°05' W 080°07'0 0.3
2014-Nov-13 10:34N 26°05' W 080°07'0 0.0
2014-Nov-13 09:33N 26°05' W 080°07'1 1.0
2014-Nov-13 08:33N 26°06' W 080°07'0 0.2
2014-Nov-13 07:33N 26°06' W 080°07'1 1.3
2014-Nov-13 06:33N 26°06' W 080°06'2 1.3
2014-Nov-13 05:21N 26°06' W 080°07'1 0.2
2014-Nov-13 01:13N 26°05' W 080°07'0 0.5
2014-Nov-13 00:34N 26°06' W 080°07'0 0.1
2014-Nov-12 22:33N 26°05' W 080°07'0 0.2
2014-Nov-12 21:33N 26°05' W 080°07'1 1.4
2014-Nov-12 20:33N 26°06' W 080°06'0 0.2
2014-Nov-12 19:33N 26°05' W 080°05'2 2.0
2014-Nov-12 18:33N 26°06' W 080°07'1 1.0
2014-Nov-12 17:34N 26°05' W 080°07'  

Dump ship's entire track history